Time,TemperatureF,DewpointF,PressureIn,WindDirection,WindDirectionDegrees,WindSpeedMPH,WindSpeedGustMPH,Humidity,HourlyPrecipIn,Conditions,Clouds,dailyrainin,SolarRadiationWatts/m^2,SoftwareType,DateUTC
2013-09-23 00:01:00,52.3,44.2,29.93,South,169,0.0,5.0,74,0.00,,,0.06,0.0,meteohub,2013-09-23 04:01:00,
2013-09-23 00:02:00,52.3,44.6,29.93,South,169,0.0,5.0,75,0.00,,,0.06,0.0,meteohub,2013-09-23 04:02:00,
2013-09-23 00:03:00,52.3,45.0,29.93,South,169,0.0,5.0,76,0.00,,,0.06,0.0,meteohub,2013-09-23 04:03:00,
2013-09-23 00:05:00,52.3,44.6,29.93,South,169,0.0,2.0,75,0.00,,,0.00,0.0,meteohub,2013-09-23 04:05:00,
2013-09-23 00:11:00,52.3,43.9,29.93,South,169,0.0,2.0,73,0.00,,,0.00,0.0,meteohub,2013-09-23 04:11:00,
2013-09-23 00:16:00,52.2,44.4,29.93,ESE,117,0.0,1.0,75,0.00,,,0.00,0.0,meteohub,2013-09-23 04:16:00,
2013-09-23 00:21:00,52.0,44.6,29.93,ESE,115,0.0,2.0,76,0.00,,,0.00,0.0,meteohub,2013-09-23 04:21:00,
2013-09-23 00:26:00,51.6,44.6,29.93,ESE,107,0.0,2.0,77,0.00,,,0.00,0.0,meteohub,2013-09-23 04:26:00,
2013-09-23 00:31:00,51.4,44.1,29.93,ESE,102,3.0,3.0,76,0.00,,,0.00,0.0,meteohub,2013-09-23 04:31:00,
2013-09-23 00:36:00,51.3,43.9,29.94,East,89,0.0,3.0,76,0.00,,,0.00,0.0,meteohub,2013-09-23 04:36:00,
2013-09-23 00:41:00,51.1,43.5,29.93,South,171,0.0,3.0,75,0.00,,,0.00,0.0,meteohub,2013-09-23 04:41:00,
2013-09-23 00:46:00,50.9,43.9,29.94,WSW,252,0.0,3.0,77,0.00,,,0.00,0.0,meteohub,2013-09-23 04:46:00,
2013-09-23 00:51:00,50.7,42.4,29.94,NE,49,0.0,6.0,73,0.00,,,0.00,0.0,meteohub,2013-09-23 04:51:00,
2013-09-23 00:56:00,50.7,43.2,29.94,South,171,0.0,6.0,75,0.00,,,0.00,0.0,meteohub,2013-09-23 04:56:00,
2013-09-23 01:02:00,50.5,41.9,29.94,SSE,168,0.0,6.0,72,0.00,,,0.00,0.0,meteohub,2013-09-23 05:02:00,
2013-09-23 01:07:00,50.5,42.3,29.94,SE,136,0.0,1.0,73,0.00,,,0.00,0.0,meteohub,2013-09-23 05:07:00,
2013-09-23 01:12:00,50.5,42.6,29.94,East,96,0.0,2.0,74,0.00,,,0.00,0.0,meteohub,2013-09-23 05:12:00,
2013-09-23 01:17:00,50.4,42.4,29.94,SSE,167,0.0,2.0,74,0.00,,,0.00,0.0,meteohub,2013-09-23 05:17:00,
2013-09-23 01:22:00,50.4,43.2,29.94,SSE,168,0.0,2.0,76,0.00,,,0.00,0.0,meteohub,2013-09-23 05:22:00,
2013-09-23 01:27:00,50.2,43.0,29.94,SSE,161,0.0,2.0,76,0.00,,,0.00,0.0,meteohub,2013-09-23 05:27:00,
2013-09-23 01:32:00,50.2,42.6,29.94,NNW,332,1.0,2.0,75,0.00,,,0.00,0.0,meteohub,2013-09-23 05:32:00,
2013-09-23 01:37:00,50.0,42.4,29.94,NNW,331,0.0,2.0,75,0.00,,,0.00,0.0,meteohub,2013-09-23 05:37:00,
2013-09-23 01:42:00,50.0,43.2,29.94,NNW,331,1.0,2.0,77,0.00,,,0.00,0.0,meteohub,2013-09-23 05:42:00,
2013-09-23 01:47:00,50.0,42.4,29.94,SW,228,0.0,2.0,75,0.00,,,0.00,0.0,meteohub,2013-09-23 05:47:00,
2013-09-23 01:52:00,49.8,41.9,29.94,West,263,0.0,4.0,74,0.00,,,0.00,0.0,meteohub,2013-09-23 05:52:00,
2013-09-23 01:57:00,49.8,42.3,29.94,West,261,0.0,4.0,75,0.00,,,0.00,0.0,meteohub,2013-09-23 05:57:00,
2013-09-23 02:02:00,49.8,41.2,29.95,WSW,250,0.0,4.0,72,0.00,,,0.00,0.0,meteohub,2013-09-23 06:02:00,
2013-09-23 02:07:00,49.6,41.4,29.95,WSW,250,0.0,1.0,73,0.00,,,0.00,0.0,meteohub,2013-09-23 06:07:00,
2013-09-23 02:12:00,49.6,41.7,29.95,WSW,250,0.0,1.0,74,0.00,,,0.00,0.0,meteohub,2013-09-23 06:12:00,
2013-09-23 02:17:00,49.5,41.5,29.95,West,279,1.0,3.0,74,0.00,,,0.00,0.0,meteohub,2013-09-23 06:17:00,
2013-09-23 02:22:00,49.3,41.7,29.95,NE,42,0.0,4.0,75,0.00,,,0.00,0.0,meteohub,2013-09-23 06:22:00,
2013-09-23 02:27:00,49.3,41.4,29.94,NW,308,0.0,4.0,74,0.00,,,0.00,0.0,meteohub,2013-09-23 06:27:00,
2013-09-23 02:32:00,49.5,42.8,29.94,NNW,333,1.0,4.0,78,0.00,,,0.00,0.0,meteohub,2013-09-23 06:32:00,
2013-09-23 02:37:00,49.5,42.3,29.94,WSW,247,0.0,4.0,76,0.00,,,0.00,0.0,meteohub,2013-09-23 06:37:00,
2013-09-23 02:42:00,49.5,42.3,29.94,SSE,167,0.0,3.0,76,0.00,,,0.00,0.0,meteohub,2013-09-23 06:42:00,
2013-09-23 02:47:00,49.5,42.6,29.94,West,273,0.0,2.0,77,0.00,,,0.00,0.0,meteohub,2013-09-23 06:47:00,
2013-09-23 02:52:00,49.5,42.6,29.95,ESE,104,0.0,4.0,77,0.00,,,0.00,0.0,meteohub,2013-09-23 06:52:00,
2013-09-23 02:57:00,49.5,42.3,29.94,NW,321,0.0,4.0,76,0.00,,,0.00,0.0,meteohub,2013-09-23 06:57:00,
2013-09-23 03:02:00,49.3,42.1,29.94,North,0,0.0,3.0,76,0.00,,,0.00,0.0,meteohub,2013-09-23 07:02:00,
2013-09-23 03:07:00,49.3,42.4,29.95,SSE,157,0.0,3.0,77,0.00,,,0.00,0.0,meteohub,2013-09-23 07:07:00,
2013-09-23 03:12:00,48.9,42.1,29.95,ENE,65,0.0,2.0,77,0.00,,,0.00,0.0,meteohub,2013-09-23 07:12:00,
2013-09-23 03:17:00,48.9,41.7,29.95,East,96,0.0,5.0,76,0.00,,,0.00,0.0,meteohub,2013-09-23 07:17:00,
2013-09-23 03:22:00,48.9,42.4,29.95,ESE,121,2.0,6.0,78,0.00,,,0.00,0.0,meteohub,2013-09-23 07:22:00,
2013-09-23 03:27:00,48.9,42.6,29.95,East,90,0.0,6.0,79,0.00,,,0.00,0.0,meteohub,2013-09-23 07:27:00,
2013-09-23 03:32:00,48.7,42.3,29.96,ESE,119,0.0,6.0,78,0.00,,,0.00,0.0,meteohub,2013-09-23 07:32:00,
2013-09-23 03:37:00,48.7,42.4,29.96,East,96,0.0,7.0,79,0.00,,,0.00,0.0,meteohub,2013-09-23 07:37:00,
2013-09-23 03:42:00,48.7,41.9,29.96,East,83,0.0,7.0,77,0.00,,,0.00,0.0,meteohub,2013-09-23 07:42:00,
2013-09-23 03:47:00,48.6,41.7,29.96,ENE,71,0.0,7.0,77,0.00,,,0.00,0.0,meteohub,2013-09-23 07:47:00,
2013-09-23 03:52:00,48.6,42.3,29.96,East,90,0.0,3.0,79,0.00,,,0.00,0.0,meteohub,2013-09-23 07:52:00,
2013-09-23 03:57:00,48.4,42.3,29.96,East,96,0.0,3.0,79,0.00,,,0.00,0.0,meteohub,2013-09-23 07:57:00,
2013-09-23 04:02:00,48.4,42.4,29.96,East,94,0.0,3.0,80,0.00,,,0.00,0.0,meteohub,2013-09-23 08:02:00,
2013-09-23 04:07:00,48.4,42.3,29.96,East,96,0.0,2.0,79,0.00,,,0.00,0.0,meteohub,2013-09-23 08:07:00,
2013-09-23 04:12:00,48.4,42.8,29.96,East,92,0.0,3.0,81,0.00,,,0.00,0.0,meteohub,2013-09-23 08:12:00,
2013-09-23 04:17:00,48.2,42.6,29.96,East,91,0.0,3.0,81,0.00,,,0.00,0.0,meteohub,2013-09-23 08:17:00,
2013-09-23 04:22:00,48.2,42.3,29.96,SE,130,0.0,4.0,80,0.00,,,0.00,0.0,meteohub,2013-09-23 08:22:00,
2013-09-23 04:27:00,48.2,41.7,29.96,SSE,168,0.0,4.0,78,0.00,,,0.00,0.0,meteohub,2013-09-23 08:27:00,
2013-09-23 04:32:00,48.2,42.1,29.96,SSE,167,0.0,4.0,79,0.00,,,0.00,0.0,meteohub,2013-09-23 08:32:00,
2013-09-23 04:37:00,48.0,41.2,29.97,West,266,0.0,4.0,77,0.00,,,0.00,0.0,meteohub,2013-09-23 08:37:00,
2013-09-23 04:42:00,48.0,41.5,29.97,ENE,68,3.0,3.0,78,0.00,,,0.00,0.0,meteohub,2013-09-23 08:42:00,
2013-09-23 04:47:00,48.0,42.1,29.97,SE,144,0.0,7.0,80,0.00,,,0.00,0.0,meteohub,2013-09-23 08:47:00,
2013-09-23 04:52:00,47.8,41.9,29.97,SE,144,0.0,7.0,80,0.00,,,0.00,0.0,meteohub,2013-09-23 08:52:00,
2013-09-23 04:57:00,47.7,41.2,29.98,SSE,167,0.0,7.0,78,0.00,,,0.00,0.0,meteohub,2013-09-23 08:57:00,
2013-09-23 05:02:00,47.7,42.1,29.98,SSE,167,0.0,2.0,81,0.00,,,0.00,0.0,meteohub,2013-09-23 09:02:00,
2013-09-23 05:07:00,47.5,42.3,29.98,SSE,167,0.0,2.0,82,0.00,,,0.00,0.0,meteohub,2013-09-23 09:07:00,
2013-09-23 05:12:00,47.1,41.5,29.98,SSW,196,0.0,2.0,81,0.00,,,0.00,0.0,meteohub,2013-09-23 09:12:00,
2013-09-23 05:17:00,47.1,41.4,29.98,SSW,205,0.0,2.0,80,0.00,,,0.00,0.0,meteohub,2013-09-23 09:17:00,
2013-09-23 05:22:00,47.1,41.4,29.98,SW,228,1.0,2.0,80,0.00,,,0.00,0.0,meteohub,2013-09-23 09:22:00,
2013-09-23 05:27:00,47.1,41.5,29.98,SW,228,0.0,2.0,81,0.00,,,0.00,0.0,meteohub,2013-09-23 09:27:00,
2013-09-23 05:32:00,47.1,41.9,29.98,SW,228,0.0,2.0,82,0.00,,,0.00,0.0,meteohub,2013-09-23 09:32:00,
2013-09-23 05:37:00,46.9,41.2,29.99,South,178,1.0,2.0,80,0.00,,,0.00,0.0,meteohub,2013-09-23 09:37:00,
2013-09-23 05:42:00,47.1,41.0,29.99,WSW,246,1.0,2.0,79,0.00,,,0.00,0.0,meteohub,2013-09-23 09:42:00,
2013-09-23 05:47:00,47.1,40.6,29.99,ENE,73,1.0,3.0,78,0.00,,,0.00,0.0,meteohub,2013-09-23 09:47:00,
2013-09-23 05:52:00,47.1,41.0,29.99,ENE,78,0.0,3.0,79,0.00,,,0.00,0.0,meteohub,2013-09-23 09:52:00,
2013-09-23 05:57:00,47.1,41.0,29.99,ENE,78,0.0,3.0,79,0.00,,,0.00,0.0,meteohub,2013-09-23 09:57:00,
2013-09-23 06:02:00,46.9,41.2,29.99,East,84,0.0,3.0,80,0.00,,,0.00,0.0,meteohub,2013-09-23 10:02:00,
2013-09-23 06:07:00,46.8,41.9,29.99,East,84,0.0,1.0,83,0.00,,,0.00,0.0,meteohub,2013-09-23 10:07:00,
2013-09-23 06:12:00,46.6,41.0,29.99,East,84,0.0,1.0,81,0.00,,,0.00,0.0,meteohub,2013-09-23 10:12:00,
2013-09-23 06:17:00,46.4,41.9,30.00,East,88,0.0,1.0,84,0.00,,,0.00,0.0,meteohub,2013-09-23 10:17:00,
2013-09-23 06:22:00,46.2,41.0,30.00,East,88,0.0,1.0,82,0.00,,,0.00,0.0,meteohub,2013-09-23 10:22:00,
2013-09-23 06:27:00,46.0,41.2,30.00,East,88,0.0,1.0,83,0.00,,,0.00,0.0,meteohub,2013-09-23 10:27:00,
2013-09-23 06:32:00,45.9,41.0,30.00,East,88,1.0,2.0,83,0.00,,,0.00,0.0,meteohub,2013-09-23 10:32:00,
2013-09-23 06:37:00,45.9,40.6,30.00,East,88,0.0,2.0,82,0.00,,,0.00,0.0,meteohub,2013-09-23 10:37:00,
2013-09-23 06:42:00,45.9,41.0,30.01,East,88,0.0,2.0,83,0.00,,,0.00,0.0,meteohub,2013-09-23 10:42:00,
2013-09-23 06:47:00,45.9,40.6,30.01,East,88,0.0,2.0,82,0.00,,,0.00,0.0,meteohub,2013-09-23 10:47:00,
2013-09-23 06:52:00,45.9,41.0,30.01,East,88,0.0,2.0,83,0.00,,,0.00,5.0,meteohub,2013-09-23 10:52:00,
2013-09-23 06:57:00,45.7,40.8,30.01,SW,224,0.0,2.0,83,0.00,,,0.00,5.0,meteohub,2013-09-23 10:57:00,
2013-09-23 07:02:00,45.7,41.2,30.01,NNE,12,0.0,5.0,84,0.00,,,0.00,7.0,meteohub,2013-09-23 11:02:00,
2013-09-23 07:07:00,45.7,40.5,30.01,NE,42,2.0,5.0,82,0.00,,,0.00,11.0,meteohub,2013-09-23 11:07:00,
2013-09-23 07:12:00,45.9,40.6,30.01,ESE,115,0.0,7.0,82,0.00,,,0.00,12.0,meteohub,2013-09-23 11:12:00,
2013-09-23 07:17:00,46.0,40.5,30.01,SSE,167,0.0,8.0,81,0.00,,,0.00,14.0,meteohub,2013-09-23 11:17:00,
2013-09-23 07:22:00,46.2,40.1,30.00,SE,128,2.0,8.0,79,0.00,,,0.00,16.0,meteohub,2013-09-23 11:22:00,
2013-09-23 07:27:00,46.6,40.5,30.00,ENE,76,0.0,5.0,79,0.00,,,0.00,18.0,meteohub,2013-09-23 11:27:00,
2013-09-23 07:32:00,46.8,40.6,30.00,ENE,73,0.0,5.0,79,0.00,,,0.00,19.0,meteohub,2013-09-23 11:32:00,
2013-09-23 07:37:00,46.9,40.8,30.01,West,261,0.0,7.0,79,0.00,,,0.00,21.0,meteohub,2013-09-23 11:37:00,
2013-09-23 07:42:00,46.9,39.7,30.01,SE,135,0.0,7.0,76,0.00,,,0.00,23.0,meteohub,2013-09-23 11:42:00,
2013-09-23 07:47:00,47.1,39.6,30.01,ESE,118,0.0,7.0,75,0.00,,,0.00,25.0,meteohub,2013-09-23 11:47:00,
2013-09-23 07:52:00,47.5,39.9,30.00,ENE,77,0.0,5.0,75,0.00,,,0.00,26.0,meteohub,2013-09-23 11:52:00,
2013-09-23 07:57:00,47.7,39.4,30.01,ESE,121,0.0,5.0,73,0.00,,,0.00,28.0,meteohub,2013-09-23 11:57:00,
2013-09-23 08:02:00,47.8,39.9,30.00,WSW,245,0.0,5.0,74,0.00,,,0.00,30.0,meteohub,2013-09-23 12:02:00,
2013-09-23 08:07:00,48.0,39.4,30.01,ENE,60,3.0,5.0,72,0.00,,,0.00,33.0,meteohub,2013-09-23 12:07:00,
2013-09-23 08:12:00,48.4,39.4,30.00,SSW,212,1.0,7.0,71,0.00,,,0.00,33.0,meteohub,2013-09-23 12:12:00,
2013-09-23 08:17:00,48.7,40.5,30.01,ESE,119,2.0,7.0,73,0.00,,,0.00,33.0,meteohub,2013-09-23 12:17:00,
2013-09-23 08:22:00,48.7,40.1,30.01,ENE,78,2.0,6.0,72,0.00,,,0.00,35.0,meteohub,2013-09-23 12:22:00,
2013-09-23 08:27:00,48.9,39.6,30.01,NE,56,1.0,7.0,70,0.00,,,0.00,37.0,meteohub,2013-09-23 12:27:00,
2013-09-23 08:32:00,49.1,39.7,30.01,East,82,2.0,7.0,70,0.00,,,0.00,39.0,meteohub,2013-09-23 12:32:00,
2013-09-23 08:37:00,49.3,39.9,30.01,ENE,70,0.0,7.0,70,0.00,,,0.00,39.0,meteohub,2013-09-23 12:37:00,
2013-09-23 08:42:00,49.3,39.9,30.01,SW,226,0.0,7.0,70,0.00,,,0.00,49.0,meteohub,2013-09-23 12:42:00,
2013-09-23 08:47:00,49.5,40.1,30.02,SSE,162,1.0,5.0,70,0.00,,,0.00,42.0,meteohub,2013-09-23 12:47:00,
2013-09-23 08:52:00,49.6,39.6,30.01,ENE,70,0.0,5.0,68,0.00,,,0.00,46.0,meteohub,2013-09-23 12:52:00,
2013-09-23 08:57:00,49.8,39.7,30.01,SW,230,2.0,5.0,68,0.00,,,0.00,42.0,meteohub,2013-09-23 12:57:00,
2013-09-23 09:02:00,50.2,40.5,30.01,WSW,254,0.0,4.0,69,0.00,,,0.00,42.0,meteohub,2013-09-23 13:02:00,
2013-09-23 09:07:00,50.4,39.7,30.01,NW,324,2.0,5.0,67,0.00,,,0.00,53.0,meteohub,2013-09-23 13:07:00,
2013-09-23 09:12:00,50.5,41.5,30.01,SW,219,0.0,9.0,71,0.00,,,0.00,83.0,meteohub,2013-09-23 13:12:00,
2013-09-23 09:17:00,50.7,41.7,30.01,NNE,28,0.0,9.0,71,0.00,,,0.00,53.0,meteohub,2013-09-23 13:17:00,
2013-09-23 09:22:00,50.9,39.9,30.01,SSE,162,0.0,9.0,66,0.00,,,0.00,248.0,meteohub,2013-09-23 13:22:00,
2013-09-23 09:27:00,51.3,39.9,30.01,WSW,241,3.0,6.0,65,0.00,,,0.00,239.0,meteohub,2013-09-23 13:27:00,
2013-09-23 09:32:00,51.4,39.2,30.01,WSW,258,0.0,7.0,63,0.00,,,0.00,56.0,meteohub,2013-09-23 13:32:00,
2013-09-23 09:37:00,51.8,39.6,30.01,West,279,0.0,7.0,63,0.00,,,0.00,56.0,meteohub,2013-09-23 13:37:00,
2013-09-23 09:42:00,52.2,41.2,30.02,WSW,242,0.0,7.0,66,0.00,,,0.00,51.0,meteohub,2013-09-23 13:42:00,
2013-09-23 09:47:00,52.3,40.1,30.02,ENE,68,3.0,5.0,63,0.00,,,0.00,51.0,meteohub,2013-09-23 13:47:00,
2013-09-23 09:52:00,52.5,41.9,30.02,SW,215,1.0,3.0,67,0.00,,,0.00,171.0,meteohub,2013-09-23 13:52:00,
2013-09-23 09:57:00,52.7,39.6,30.02,North,5,0.0,3.0,61,0.00,,,0.00,127.0,meteohub,2013-09-23 13:57:00,
2013-09-23 10:02:00,53.1,41.2,30.01,South,178,0.0,3.0,64,0.00,,,0.00,327.0,meteohub,2013-09-23 14:02:00,
2013-09-23 10:07:00,53.4,39.9,30.01,SW,227,1.0,3.0,60,0.00,,,0.00,533.0,meteohub,2013-09-23 14:07:00,
2013-09-23 10:12:00,54.0,40.8,30.01,West,277,0.0,3.0,61,0.00,,,0.00,543.0,meteohub,2013-09-23 14:12:00,
2013-09-23 10:17:00,54.7,40.6,30.02,SE,146,0.0,3.0,59,0.00,,,0.00,555.0,meteohub,2013-09-23 14:17:00,
2013-09-23 10:22:00,55.0,41.0,30.01,NNE,31,2.0,3.0,59,0.00,,,0.00,566.0,meteohub,2013-09-23 14:22:00,
2013-09-23 10:27:00,55.2,41.2,30.01,NE,37,1.0,7.0,59,0.00,,,0.00,575.0,meteohub,2013-09-23 14:27:00,
2013-09-23 10:32:00,55.6,41.9,30.02,SW,227,0.0,7.0,60,0.00,,,0.00,585.0,meteohub,2013-09-23 14:32:00,
2013-09-23 10:37:00,55.8,41.2,30.02,SW,229,0.0,4.0,58,0.00,,,0.00,596.0,meteohub,2013-09-23 14:37:00,
2013-09-23 10:42:00,56.1,41.2,30.01,WNW,295,0.0,5.0,57,0.00,,,0.00,605.0,meteohub,2013-09-23 14:42:00,
2013-09-23 10:47:00,56.5,41.9,30.01,East,83,0.0,5.0,58,0.00,,,0.00,615.0,meteohub,2013-09-23 14:47:00,
2013-09-23 10:52:00,56.8,42.6,30.02,NNW,346,0.0,4.0,59,0.00,,,0.00,628.0,meteohub,2013-09-23 14:52:00,
2013-09-23 10:57:00,57.0,41.5,30.02,WSW,254,1.0,5.0,56,0.00,,,0.00,631.0,meteohub,2013-09-23 14:57:00,
2013-09-23 11:02:00,57.4,43.2,30.01,WSW,244,0.0,5.0,59,0.00,,,0.00,640.0,meteohub,2013-09-23 15:02:00,
2013-09-23 11:07:00,57.6,41.9,30.02,SE,133,0.0,5.0,56,0.00,,,0.00,647.0,meteohub,2013-09-23 15:07:00,
2013-09-23 11:12:00,57.7,42.1,30.02,ENE,72,4.0,4.0,56,0.00,,,0.00,656.0,meteohub,2013-09-23 15:12:00,
2013-09-23 11:17:00,58.1,44.8,30.02,ENE,76,0.0,6.0,61,0.00,,,0.00,666.0,meteohub,2013-09-23 15:17:00,
2013-09-23 11:22:00,58.5,42.4,30.02,WSW,255,0.0,6.0,55,0.00,,,0.00,670.0,meteohub,2013-09-23 15:22:00,
2013-09-23 11:27:00,58.6,41.5,30.02,East,101,1.0,6.0,53,0.00,,,0.00,677.0,meteohub,2013-09-23 15:27:00,
2013-09-23 11:32:00,59.2,43.0,30.02,NNW,348,1.0,9.0,55,0.00,,,0.00,682.0,meteohub,2013-09-23 15:32:00,
2013-09-23 11:37:00,59.4,42.8,30.02,East,82,3.0,9.0,54,0.00,,,0.00,687.0,meteohub,2013-09-23 15:37:00,
2013-09-23 11:42:00,59.4,42.8,30.02,North,11,3.0,9.0,54,0.00,,,0.00,693.0,meteohub,2013-09-23 15:42:00,
2013-09-23 11:47:00,59.4,42.8,30.02,SW,232,0.0,9.0,54,0.00,,,0.00,698.0,meteohub,2013-09-23 15:47:00,
2013-09-23 11:52:00,59.5,43.3,30.02,WNW,301,1.0,9.0,55,0.00,,,0.00,705.0,meteohub,2013-09-23 15:52:00,
2013-09-23 11:57:00,59.5,42.8,30.02,NNE,28,1.0,7.0,54,0.00,,,0.00,703.0,meteohub,2013-09-23 15:57:00,
2013-09-23 12:02:00,59.4,42.8,30.01,NNE,15,1.0,10.0,54,0.00,,,0.00,708.0,meteohub,2013-09-23 16:02:00,
2013-09-23 12:07:00,59.2,43.5,30.02,NW,304,1.0,10.0,56,0.00,,,0.00,714.0,meteohub,2013-09-23 16:07:00,
2013-09-23 12:12:00,59.0,41.9,30.01,North,355,0.0,10.0,53,0.00,,,0.00,714.0,meteohub,2013-09-23 16:12:00,
2013-09-23 12:17:00,59.2,43.9,30.02,East,84,0.0,11.0,57,0.00,,,0.00,717.0,meteohub,2013-09-23 16:17:00,
2013-09-23 12:22:00,59.4,43.7,30.02,WNW,292,1.0,11.0,56,0.00,,,0.00,722.0,meteohub,2013-09-23 16:22:00,
2013-09-23 12:27:00,59.7,43.5,30.02,SSE,151,1.0,11.0,55,0.00,,,0.00,722.0,meteohub,2013-09-23 16:27:00,
2013-09-23 12:32:00,59.7,46.2,30.02,North,355,1.0,7.0,61,0.00,,,0.00,724.0,meteohub,2013-09-23 16:32:00,
2013-09-23 12:37:00,59.7,43.5,30.02,NE,43,4.0,7.0,55,0.00,,,0.00,726.0,meteohub,2013-09-23 16:37:00,
2013-09-23 12:42:00,59.7,43.5,30.02,ENE,74,3.0,8.0,55,0.00,,,0.00,722.0,meteohub,2013-09-23 16:42:00,
2013-09-23 12:47:00,59.7,45.0,30.02,SW,223,0.0,8.0,58,0.00,,,0.00,721.0,meteohub,2013-09-23 16:47:00,
2013-09-23 12:52:00,60.1,44.4,30.02,NW,320,2.0,8.0,56,0.00,,,0.00,722.0,meteohub,2013-09-23 16:52:00,
2013-09-23 12:57:00,60.3,43.5,30.01,NE,52,1.0,7.0,54,0.00,,,0.00,722.0,meteohub,2013-09-23 16:57:00,
2013-09-23 13:02:00,60.4,44.2,30.01,NE,34,1.0,5.0,55,0.00,,,0.00,722.0,meteohub,2013-09-23 17:02:00,
2013-09-23 13:07:00,60.6,45.3,30.01,NNE,19,1.0,6.0,57,0.00,,,0.00,719.0,meteohub,2013-09-23 17:07:00,
2013-09-23 13:12:00,61.0,45.1,30.01,SE,144,5.0,6.0,56,0.00,,,0.00,719.0,meteohub,2013-09-23 17:12:00,
2013-09-23 13:17:00,60.6,43.9,30.01,ESE,122,3.0,8.0,54,0.00,,,0.00,715.0,meteohub,2013-09-23 17:17:00,
2013-09-23 13:22:00,61.0,45.7,30.01,WNW,288,1.0,8.0,57,0.00,,,0.00,717.0,meteohub,2013-09-23 17:22:00,
2013-09-23 13:27:00,61.0,44.2,30.01,South,178,3.0,8.0,54,0.00,,,0.00,729.0,meteohub,2013-09-23 17:27:00,
2013-09-23 13:32:00,61.2,45.3,30.01,WNW,296,0.0,6.0,56,0.00,,,0.00,705.0,meteohub,2013-09-23 17:32:00,
2013-09-23 13:37:00,61.3,44.1,30.01,East,90,1.0,7.0,53,0.00,,,0.00,703.0,meteohub,2013-09-23 17:37:00,
2013-09-23 13:42:00,61.3,44.6,30.01,NNW,331,1.0,7.0,54,0.00,,,0.00,700.0,meteohub,2013-09-23 17:42:00,
2013-09-23 13:47:00,61.5,45.1,30.01,SE,137,3.0,7.0,55,0.00,,,0.00,694.0,meteohub,2013-09-23 17:47:00,
2013-09-23 13:52:00,61.7,47.3,30.01,SSE,167,2.0,7.0,59,0.00,,,0.00,691.0,meteohub,2013-09-23 17:52:00,
2013-09-23 13:57:00,61.7,45.3,30.00,SSE,153,1.0,7.0,55,0.00,,,0.00,686.0,meteohub,2013-09-23 17:57:00,
2013-09-23 14:02:00,61.3,44.1,30.01,West,277,2.0,7.0,53,0.00,,,0.00,679.0,meteohub,2013-09-23 18:02:00,
2013-09-23 14:07:00,61.3,45.5,30.00,NNW,327,3.0,7.0,56,0.00,,,0.00,671.0,meteohub,2013-09-23 18:07:00,
2013-09-23 14:12:00,61.3,45.0,30.00,East,101,6.0,6.0,55,0.00,,,0.00,663.0,meteohub,2013-09-23 18:12:00,
2013-09-23 14:17:00,61.3,45.0,30.00,NW,322,2.0,7.0,55,0.00,,,0.00,657.0,meteohub,2013-09-23 18:17:00,
2013-09-23 14:22:00,61.5,46.2,30.00,South,186,0.0,7.0,57,0.00,,,0.00,652.0,meteohub,2013-09-23 18:22:00,
2013-09-23 14:27:00,61.5,46.2,30.00,NNW,342,0.0,7.0,57,0.00,,,0.00,645.0,meteohub,2013-09-23 18:27:00,
2013-09-23 14:32:00,61.9,46.0,30.00,NNW,343,0.0,5.0,56,0.00,,,0.00,636.0,meteohub,2013-09-23 18:32:00,
2013-09-23 14:37:00,62.1,46.2,30.00,SW,231,0.0,10.0,56,0.00,,,0.00,629.0,meteohub,2013-09-23 18:37:00,
2013-09-23 14:42:00,62.1,45.7,29.99,East,98,2.0,10.0,55,0.00,,,0.00,619.0,meteohub,2013-09-23 18:42:00,
2013-09-23 14:47:00,62.2,45.9,29.99,ESE,107,1.0,10.0,55,0.00,,,0.00,612.0,meteohub,2013-09-23 18:47:00,
2013-09-23 14:52:00,62.4,45.5,29.99,SSW,202,0.0,10.0,54,0.00,,,0.00,601.0,meteohub,2013-09-23 18:52:00,
2013-09-23 14:57:00,62.2,45.3,29.99,ESE,107,1.0,7.0,54,0.00,,,0.00,596.0,meteohub,2013-09-23 18:57:00,
2013-09-23 15:02:00,62.2,45.3,29.99,East,92,0.0,7.0,54,0.00,,,0.00,584.0,meteohub,2013-09-23 19:02:00,
2013-09-23 15:07:00,62.2,45.0,29.99,SSE,154,0.0,9.0,53,0.00,,,0.00,575.0,meteohub,2013-09-23 19:07:00,
2013-09-23 15:12:00,62.2,47.3,29.99,West,280,0.0,9.0,58,0.00,,,0.00,564.0,meteohub,2013-09-23 19:12:00,
2013-09-23 15:17:00,62.1,45.7,29.99,East,99,0.0,10.0,55,0.00,,,0.00,555.0,meteohub,2013-09-23 19:17:00,
2013-09-23 15:22:00,62.1,44.2,29.99,WSW,243,1.0,10.0,52,0.00,,,0.00,543.0,meteohub,2013-09-23 19:22:00,
2013-09-23 15:27:00,61.9,44.6,30.00,NNE,33,0.0,6.0,53,0.00,,,0.00,531.0,meteohub,2013-09-23 19:27:00,
2013-09-23 15:32:00,61.9,44.6,29.99,NE,48,0.0,7.0,53,0.00,,,0.00,522.0,meteohub,2013-09-23 19:32:00,
2013-09-23 15:37:00,61.5,46.6,29.99,East,101,0.0,7.0,58,0.00,,,0.00,475.0,meteohub,2013-09-23 19:37:00,
2013-09-23 15:42:00,61.3,47.8,29.99,ESE,119,0.0,7.0,61,0.00,,,0.00,54.0,meteohub,2013-09-23 19:42:00,
2013-09-23 15:47:00,61.2,46.2,29.99,NNE,19,2.0,3.0,58,0.00,,,0.00,118.0,meteohub,2013-09-23 19:47:00,
2013-09-23 15:52:00,60.6,44.4,29.99,SE,125,1.0,4.0,55,0.00,,,0.00,42.0,meteohub,2013-09-23 19:52:00,
2013-09-23 15:57:00,60.4,45.7,29.99,ESE,117,0.0,8.0,58,0.00,,,0.00,40.0,meteohub,2013-09-23 19:57:00,
2013-09-23 16:02:00,60.4,46.0,29.99,NE,38,1.0,8.0,59,0.00,,,0.00,77.0,meteohub,2013-09-23 20:02:00,
2013-09-23 16:07:00,60.3,45.0,29.99,NE,55,0.0,6.0,57,0.00,,,0.00,37.0,meteohub,2013-09-23 20:07:00,
2013-09-23 16:12:00,60.1,45.3,29.99,East,91,1.0,6.0,58,0.00,,,0.00,35.0,meteohub,2013-09-23 20:12:00,
2013-09-23 16:17:00,59.9,44.6,29.99,SE,130,0.0,6.0,57,0.00,,,0.00,35.0,meteohub,2013-09-23 20:17:00,
2013-09-23 16:22:00,59.9,45.1,29.99,SE,127,0.0,7.0,58,0.00,,,0.00,53.0,meteohub,2013-09-23 20:22:00,
2013-09-23 16:27:00,59.9,46.0,29.99,SE,130,0.0,7.0,60,0.00,,,0.00,44.0,meteohub,2013-09-23 20:27:00,
2013-09-23 16:32:00,59.7,45.9,29.99,NE,43,0.0,7.0,60,0.00,,,0.00,33.0,meteohub,2013-09-23 20:32:00,
2013-09-23 16:37:00,59.5,46.6,29.99,East,93,0.0,3.0,62,0.00,,,0.00,32.0,meteohub,2013-09-23 20:37:00,
2013-09-23 16:42:00,59.4,47.7,29.99,East,84,3.0,3.0,65,0.00,,,0.00,32.0,meteohub,2013-09-23 20:42:00,
2013-09-23 16:47:00,59.4,46.4,29.99,SE,136,0.0,5.0,62,0.00,,,0.00,32.0,meteohub,2013-09-23 20:47:00,
2013-09-23 16:52:00,59.4,46.4,30.00,ENE,63,1.0,5.0,62,0.00,,,0.00,37.0,meteohub,2013-09-23 20:52:00,
2013-09-23 16:57:00,59.2,48.6,30.00,ENE,63,0.0,6.0,68,0.00,,,0.00,30.0,meteohub,2013-09-23 20:57:00,
2013-09-23 17:02:00,58.8,46.6,30.00,East,83,0.0,6.0,64,0.00,,,0.00,33.0,meteohub,2013-09-23 21:02:00,
2013-09-23 17:07:00,58.8,47.1,30.00,SW,225,0.0,3.0,65,0.00,,,0.00,42.0,meteohub,2013-09-23 21:07:00,
2013-09-23 17:12:00,59.2,46.2,30.00,ESE,110,0.0,3.0,62,0.00,,,0.00,144.0,meteohub,2013-09-23 21:12:00,
2013-09-23 17:17:00,59.2,46.9,30.00,ESE,110,0.0,3.0,64,0.00,,,0.00,179.0,meteohub,2013-09-23 21:17:00,
2013-09-23 17:22:00,59.0,48.0,30.01,ESE,110,0.0,3.0,67,0.00,,,0.00,49.0,meteohub,2013-09-23 21:22:00,
2013-09-23 17:27:00,58.6,47.7,30.01,ESE,110,0.0,3.0,67,0.00,,,0.00,28.0,meteohub,2013-09-23 21:27:00,
2013-09-23 17:32:00,58.6,46.9,30.01,ESE,118,0.0,2.0,65,0.00,,,0.00,30.0,meteohub,2013-09-23 21:32:00,
2013-09-23 17:37:00,58.5,48.0,30.01,East,101,2.0,2.0,68,0.00,,,0.00,63.0,meteohub,2013-09-23 21:37:00,
2013-09-23 17:42:00,58.3,48.9,30.01,East,88,0.0,3.0,71,0.00,,,0.00,21.0,meteohub,2013-09-23 21:42:00,
2013-09-23 17:47:00,57.9,47.8,30.01,East,88,0.0,3.0,69,0.00,,,0.00,21.0,meteohub,2013-09-23 21:47:00,
2013-09-23 17:52:00,57.7,48.0,30.01,East,88,0.0,3.0,70,0.00,,,0.00,18.0,meteohub,2013-09-23 21:52:00,
2013-09-23 17:57:00,57.4,48.7,30.01,East,84,0.0,1.0,73,0.00,,,0.00,11.0,meteohub,2013-09-23 21:57:00,
2013-09-23 18:02:00,57.0,48.0,30.01,East,84,0.0,3.0,72,0.00,,,0.00,11.0,meteohub,2013-09-23 22:02:00,
2013-09-23 18:07:00,56.7,45.9,30.01,ESE,113,0.0,3.0,67,0.00,,,0.00,11.0,meteohub,2013-09-23 22:07:00,
2013-09-23 18:12:00,56.1,48.0,30.01,ESE,113,1.0,3.0,74,0.00,,,0.00,9.0,meteohub,2013-09-23 22:12:00,
2013-09-23 18:17:00,55.8,47.7,30.01,ESE,113,0.0,2.0,74,0.00,,,0.00,9.0,meteohub,2013-09-23 22:17:00,
2013-09-23 18:22:00,55.2,48.2,30.02,ESE,113,0.0,1.0,77,0.00,,,0.00,7.0,meteohub,2013-09-23 22:22:00,
2013-09-23 18:27:00,54.9,47.8,30.01,ESE,113,0.0,1.0,77,0.00,,,0.00,7.0,meteohub,2013-09-23 22:27:00,
2013-09-23 18:32:00,54.1,47.5,30.02,ESE,113,0.0,2.0,78,0.00,,,0.00,5.0,meteohub,2013-09-23 22:32:00,
2013-09-23 18:37:00,53.8,47.8,30.02,ESE,113,0.0,2.0,80,0.00,,,0.00,5.0,meteohub,2013-09-23 22:37:00,
2013-09-23 18:42:00,53.2,47.5,30.02,ESE,113,0.0,2.0,81,0.00,,,0.00,0.0,meteohub,2013-09-23 22:42:00,
2013-09-23 18:47:00,52.9,47.5,30.02,South,178,1.0,1.0,82,0.00,,,0.00,0.0,meteohub,2013-09-23 22:47:00,
2013-09-23 18:52:00,52.7,47.3,30.02,SSW,208,0.0,3.0,82,0.00,,,0.00,0.0,meteohub,2013-09-23 22:52:00,
2013-09-23 18:57:00,52.7,48.0,30.03,SSW,208,0.0,3.0,84,0.00,,,0.00,0.0,meteohub,2013-09-23 22:57:00,
2013-09-23 19:02:00,52.5,47.5,30.02,NW,325,1.0,3.0,83,0.00,,,0.00,0.0,meteohub,2013-09-23 23:02:00,
2013-09-23 19:08:00,52.9,46.9,30.03,West,275,0.0,3.0,80,0.00,,,0.00,0.0,meteohub,2013-09-23 23:08:00,
2013-09-23 19:13:00,53.1,45.7,30.03,West,266,0.0,3.0,76,0.00,,,0.00,0.0,meteohub,2013-09-23 23:13:00,
2013-09-23 19:18:00,53.2,45.9,30.03,West,266,0.0,3.0,76,0.00,,,0.00,0.0,meteohub,2013-09-23 23:18:00,
2013-09-23 19:23:00,53.2,45.9,30.03,West,266,0.0,2.0,76,0.00,,,0.00,0.0,meteohub,2013-09-23 23:23:00,
2013-09-23 19:28:00,53.2,46.9,30.03,SSE,148,0.0,1.0,79,0.00,,,0.00,0.0,meteohub,2013-09-23 23:28:00,
2013-09-23 19:33:00,53.2,45.5,30.04,WSW,242,1.0,2.0,75,0.00,,,0.00,0.0,meteohub,2013-09-23 23:33:00,
2013-09-23 19:38:00,53.2,45.5,30.04,SE,124,0.0,2.0,75,0.00,,,0.00,0.0,meteohub,2013-09-23 23:38:00,
2013-09-23 19:43:00,53.6,45.9,30.04,SSE,147,0.0,3.0,75,0.00,,,0.00,0.0,meteohub,2013-09-23 23:43:00,
2013-09-23 19:48:00,53.4,44.6,30.04,SSE,147,0.0,3.0,72,0.00,,,0.00,0.0,meteohub,2013-09-23 23:48:00,
2013-09-23 19:53:00,53.4,45.0,30.04,SE,140,1.0,3.0,73,0.00,,,0.00,0.0,meteohub,2013-09-23 23:53:00,
2013-09-23 19:58:00,53.4,44.6,30.04,ESE,109,0.0,2.0,72,0.00,,,0.00,0.0,meteohub,2013-09-23 23:58:00,
2013-09-23 20:03:00,53.4,44.6,30.04,ESE,122,0.0,2.0,72,0.00,,,0.00,0.0,meteohub,2013-09-24 00:03:00,
2013-09-23 20:09:00,53.4,44.6,30.04,SE,134,0.0,2.0,72,0.00,,,0.00,0.0,meteohub,2013-09-24 00:09:00,
2013-09-23 20:14:00,53.2,44.8,30.04,SE,132,0.0,2.0,73,0.00,,,0.00,0.0,meteohub,2013-09-24 00:14:00,
2013-09-23 20:19:00,53.1,45.3,30.04,SE,132,0.0,2.0,75,0.00,,,0.00,0.0,meteohub,2013-09-24 00:19:00,
2013-09-23 20:24:00,52.9,44.4,30.04,ESE,123,0.0,2.0,73,0.00,,,0.00,0.0,meteohub,2013-09-24 00:24:00,
2013-09-23 20:29:00,52.7,45.0,30.04,SE,124,0.0,2.0,75,0.00,,,0.00,0.0,meteohub,2013-09-24 00:29:00,
2013-09-23 20:34:00,52.5,44.8,30.04,ESE,115,1.0,2.0,75,0.00,,,0.00,0.0,meteohub,2013-09-24 00:34:00,
2013-09-23 20:39:00,52.3,45.3,30.04,ESE,115,1.0,3.0,77,0.00,,,0.00,0.0,meteohub,2013-09-24 00:39:00,
2013-09-23 20:44:00,52.3,44.2,30.04,East,94,0.0,3.0,74,0.00,,,0.00,0.0,meteohub,2013-09-24 00:44:00,
2013-09-23 20:49:00,52.3,44.6,30.04,NE,56,1.0,7.0,75,0.00,,,0.00,0.0,meteohub,2013-09-24 00:49:00,
2013-09-23 20:54:00,52.2,44.8,30.04,East,97,0.0,7.0,76,0.00,,,0.00,0.0,meteohub,2013-09-24 00:54:00,
2013-09-23 20:59:00,52.2,44.1,30.04,NNW,330,0.0,7.0,74,0.00,,,0.00,0.0,meteohub,2013-09-24 00:59:00,
2013-09-23 21:05:00,52.0,44.2,30.04,ENE,63,0.0,5.0,75,0.00,,,0.00,0.0,meteohub,2013-09-24 01:05:00,
2013-09-23 21:10:00,52.0,44.6,30.04,ENE,78,0.0,5.0,76,0.00,,,0.00,0.0,meteohub,2013-09-24 01:10:00,
2013-09-23 21:15:00,52.0,44.2,30.04,ESE,113,0.0,4.0,75,0.00,,,0.00,0.0,meteohub,2013-09-24 01:15:00,
2013-09-23 21:20:00,51.8,43.7,30.04,SE,142,0.0,4.0,74,0.00,,,0.00,0.0,meteohub,2013-09-24 01:20:00,
2013-09-23 21:25:00,51.8,43.7,30.04,NNE,32,0.0,5.0,74,0.00,,,0.00,0.0,meteohub,2013-09-24 01:25:00,
2013-09-23 21:30:00,51.8,44.4,30.05,ENE,67,0.0,5.0,76,0.00,,,0.00,0.0,meteohub,2013-09-24 01:30:00,
2013-09-23 21:35:00,51.8,44.1,30.05,East,90,0.0,5.0,75,0.00,,,0.00,0.0,meteohub,2013-09-24 01:35:00,
2013-09-23 21:40:00,51.8,44.1,30.06,WNW,283,0.0,5.0,75,0.00,,,0.00,0.0,meteohub,2013-09-24 01:40:00,
2013-09-23 21:45:00,51.6,43.9,30.05,SE,135,1.0,5.0,75,0.00,,,0.00,0.0,meteohub,2013-09-24 01:45:00,
2013-09-23 21:51:00,51.6,43.5,30.06,ESE,117,1.0,5.0,74,0.00,,,0.00,0.0,meteohub,2013-09-24 01:51:00,
2013-09-23 21:56:00,51.6,43.9,30.06,NW,325,0.0,3.0,75,0.00,,,0.00,0.0,meteohub,2013-09-24 01:56:00,
2013-09-23 22:01:00,51.6,44.2,30.06,SE,144,0.0,3.0,76,0.00,,,0.00,0.0,meteohub,2013-09-24 02:01:00,
2013-09-23 22:06:00,51.4,43.7,30.06,SE,146,0.0,3.0,75,0.00,,,0.00,0.0,meteohub,2013-09-24 02:06:00,
2013-09-23 22:11:00,51.4,43.7,30.06,ENE,76,1.0,3.0,75,0.00,,,0.00,0.0,meteohub,2013-09-24 02:11:00,
2013-09-23 22:16:00,51.3,43.9,30.06,South,187,0.0,3.0,76,0.00,,,0.00,0.0,meteohub,2013-09-24 02:16:00,
2013-09-23 22:21:00,51.3,43.3,30.06,SW,217,0.0,3.0,74,0.00,,,0.00,0.0,meteohub,2013-09-24 02:21:00,
2013-09-23 22:26:00,51.3,43.9,30.07,ENE,74,0.0,3.0,76,0.00,,,0.00,0.0,meteohub,2013-09-24 02:26:00,
2013-09-23 22:31:00,51.1,44.8,30.07,ESE,105,0.0,3.0,79,0.00,,,0.00,0.0,meteohub,2013-09-24 02:31:00,
2013-09-23 22:36:00,50.9,43.3,30.07,SE,144,0.0,2.0,75,0.00,,,0.00,0.0,meteohub,2013-09-24 02:36:00,
2013-09-23 22:41:00,50.7,44.1,30.08,SE,144,0.0,2.0,78,0.00,,,0.00,0.0,meteohub,2013-09-24 02:41:00,
2013-09-23 22:47:00,50.5,44.6,30.08,SE,144,0.0,2.0,80,0.00,,,0.00,0.0,meteohub,2013-09-24 02:47:00,
2013-09-23 22:52:00,50.4,43.3,30.08,SE,142,0.0,1.0,77,0.00,,,0.00,0.0,meteohub,2013-09-24 02:52:00,
2013-09-23 22:57:00,50.2,43.5,30.08,SE,142,0.0,1.0,78,0.00,,,0.00,0.0,meteohub,2013-09-24 02:57:00,
2013-09-23 23:02:00,50.0,43.3,30.08,SE,142,0.0,1.0,78,0.00,,,0.00,0.0,meteohub,2013-09-24 03:02:00,
2013-09-23 23:07:00,49.6,43.3,30.09,SE,142,0.0,1.0,79,0.00,,,0.00,0.0,meteohub,2013-09-24 03:07:00,
2013-09-23 23:12:00,49.5,43.5,30.09,SE,142,0.0,1.0,80,0.00,,,0.00,0.0,meteohub,2013-09-24 03:12:00,
2013-09-23 23:17:00,48.9,43.3,30.09,SE,142,0.0,1.0,81,0.00,,,0.00,0.0,meteohub,2013-09-24 03:17:00,
2013-09-23 23:22:00,48.6,43.0,30.09,SE,142,0.0,1.0,81,0.00,,,0.00,0.0,meteohub,2013-09-24 03:22:00,
2013-09-23 23:27:00,48.2,43.0,30.09,SE,142,0.0,0.0,82,0.00,,,0.00,0.0,meteohub,2013-09-24 03:27:00,
2013-09-23 23:32:00,47.7,42.8,30.09,SE,142,0.0,0.0,83,0.00,,,0.00,0.0,meteohub,2013-09-24 03:32:00,
2013-09-23 23:37:00,47.3,43.0,30.09,SE,142,0.0,1.0,85,0.00,,,0.00,0.0,meteohub,2013-09-24 03:37:00,
2013-09-23 23:42:00,46.9,42.6,30.09,SE,142,0.0,1.0,85,0.00,,,0.00,0.0,meteohub,2013-09-24 03:42:00,
2013-09-23 23:47:00,46.8,42.8,30.09,SE,142,0.0,1.0,86,0.00,,,0.00,0.0,meteohub,2013-09-24 03:47:00,
2013-09-23 23:52:00,46.6,42.6,30.09,SE,142,0.0,0.0,86,0.00,,,0.00,0.0,meteohub,2013-09-24 03:52:00,
2013-09-23 23:57:00,46.4,42.1,30.09,SE,142,0.0,0.0,85,0.00,,,0.00,0.0,meteohub,2013-09-24 03:57:00,